sim
Sign-in with your pilot id or email,
or register
Callsign
Passwort

Schedule Details

Flight Number: RYR6642 (2)
Departure: Edinburgh Airport (EGPH) at 06:30
Arrival: Bratislava M. R. Stefanik Airport (LZIB) at 09:10
Route: Ryanair Passenger Schedule. Enter filed route here before submitting Pirep.

Weather Information
Getting current METAR information for EGPH 280250Z VRB01KT CAVOK 09/07 Q1035
Getting current METAR information for LZIB 280300Z 26004KT CAVOK 12/06 Q1025

Schedule Frequency

Route Map